AirNav   TITAN Aviation Fuels
 
 1072 users online  

9I0 Havana Regional Airport
Havana, Illinois, USA

GOING TO HAVANA?


FAA INFORMATION EFFECTIVE 26 JANUARY 2023

Location

FAA Identifier: 9I0
Lat/Long: 40-13-21.6950N 090-01-22.0150W
40-13.361583N 090-01.366917W
40.2226931,-90.0227819
(estimated)
Elevation: 488.2 ft. / 148.8 m (surveyed)
Variation: 01E (1985)
From city: 5 miles SE of HAVANA, IL
Time zone: UTC -6 (UTC -5 during Daylight Saving Time)
Zip code: 62644

Airport Operations

Airport use: Open to the public
Activation date: 03/1985
Control tower: no
ARTCC: KANSAS CITY CENTER
FSS: KANKAKEE FLIGHT SERVICE STATION
NOTAMs facility: IKK (NOTAM-D service available)
Attendance: IREG
Wind indicator: lighted
Segmented circle: no
Beacon: white-green (lighted land airport)
Operates sunset to sunrise.

Airport Communications

CTAF: 122.9

Nearby radio navigation aids

VOR radial/distance  VOR name  Freq  Var
SPIr326/27.9SPINNER VORTAC112.7001W
PIAr197/29.4PEORIA VORTAC115.2004E

 
NDB name  Hdg/Dist  Freq  Var  ID
MACOMB125/30.325101EJZY .--- --.. -.--
ABRAHAM277/31.632900EAAA .- .- .-

Airport Services

Fuel available: 100LL
100LL:SELF SVC FUEL AVBL 24 HRS.
Parking: tiedowns
Airframe service: NONE
Powerplant service: NONE
Bottled oxygen: NONE
Bulk oxygen: NONE

Runway Information

Runway 9/27

Dimensions: 2235 x 100 ft. / 681 x 30 m
Surface: turf, in good condition
Runway edge lights: medium intensity
RUNWAY 9  RUNWAY 27
Latitude: 40-13.360833N40-13.362333N
Longitude: 090-01.607000W090-01.126833W
Elevation: 485.5 ft.488.2 ft.
Traffic pattern: leftleft
Touchdown point: yes, no lightsyes, no lights

Airport Ownership and Management from official FAA records

Ownership: Publicly-owned
Owner: HAVANA REGIONAL PORT DISTRICT
17787 SHERWOOD FOREST RD
HAVANA, IL 62644
Phone (217) 725-0628
Manager: BOB MARTIN
18206 QUIVER BEACH RD
HAVANA, IL 62644-6895
Phone 309-543-9006
EMAIL ADDRESS: FLYBYEWIRE@GMAIL.COM (ALL LOWER CASE)

Airport Operational Statistics

Aircraft based on the field: 13
Single engine airplanes: 13
    
Aircraft operations: avg 27/week *
71% local general aviation
29% transient general aviation
* for 12-month period ending 31 March 2020

Additional Remarks

FOR CD CTC ST LOUIS APCH 314-890-1017.

Instrument Procedures

There are no published instrument procedures at 9I0.

Some nearby airports with instrument procedures:

KCTK - Ingersoll Airport (21 nm N)
C15 - Pekin Municipal Airport (22 nm NE)
KSPI - Abraham Lincoln Capital Airport (28 nm SE)
KIJX - Jacksonville Municipal Airport (29 nm S)
KPIA - General Downing - Peoria International Airport (30 nm NE)
 
Loc | Ops | Rwys | IFR | FBO | Links
Com | Nav | Svcs | Stats | Notes
Area around 9I0 (Havana Regional Airport)
 
Road maps at: MapQuest Bing Google
 
Aerial photo
WARNING: Photo may not be current or correct
Aerial photo of 9I0 (Havana Regional Airport)
Taken mid June 2008

Do you have a better or more recent aerial photo of Havana Regional Airport that you would like to share? If so, please send us your photo.

 
Sectional chart

 
Airport distance calculator
Flying to Havana Regional Airport? Find the distance to fly.

From to 9I0

Sunrise and sunset
Times for 28-Jan-2023
 Local
(UTC-6)
 Zulu
(UTC)
Morning civil twilight06:4512:45
Sunrise07:1413:14
Sunset17:1323:13
Evening civil twilight17:4223:42

Current date and time
Zulu (UTC)  29-Jan-2023 00:30:15
Local (UTC-6)  28-Jan-2023 18:30:15
 
METAR
KSPI 
27nm SE 
282352Z 17017G25KT 10SM OVC070 09/03 A2995 RMK AO2 SLP145 T00890033 10117 20061 53004
KIJX 
29nm S 
290015Z AUTO 16012G17KT 10SM BKN048 OVC055 10/03 A2992 RMK AO2 T00960032
KPIA 
31nm NE 
282354Z 06015KT 10SM OVC080 M01/M03 A2998 RMK AO2 SLP161 T10111028 10017 21011 58005
KAAA 
32nm E 
290015Z AUTO 00000KT 10SM BKN048 OVC050 09/05 A2997 RMK AO2 T00880046
KMQB 
34nm NW 
290015Z AUTO 02013KT 10SM OVC009 M02/M04 A3001 RMK AO2 T10221037
KI63 
39nm W 
290015Z AUTO 36010KT 10SM BKN050 OVC070 01/00 A2994 RMK AO2 T00091005
KGBG 
47nm NW 
290015Z AUTO 03013G18KT 10SM OVC010 M04/M05 A3002 RMK AO2 T10431046
KPPQ 
50nm SW 
290015Z AUTO 00000KT 10SM BKN046 OVC060 05/02 A2993 RMK AO2 T00510015
TAF
KSPI 
27nm SE 
281733Z 2818/2918 15010KT P6SM OVC080 FM282200 18011KT P6SM BKN035 FM290300 19012KT P6SM VCSH OVC025 FM290500 20007KT 4SM -RA BR OVC007 FM290900 34010KT 3SM -RA BR OVC005 FM291100 36012KT 4SM -FZRA OVC007 FM291400 35012KT P6SM BKN012 OVC018
KPIA 
31nm NE 
281733Z 2818/2918 09009KT P6SM SCT020 OVC060 FM282300 04009KT P6SM VCSH SCT015 OVC025 FM290200 03008KT 4SM -FZRA BR OVC007 FM290700 01011KT 3SM -FZDZSN BR OVC005 FM291000 36012KT P6SM VCSH OVC009 FM291400 35012KT P6SM SCT012 OVC018
NOTAMs
Click for the latest NOTAMs
NOTAMs are issued by the DoD/FAA and will open in a separate window not controlled by AirNav.

 

 
 

FBO, Fuel Providers, and Aircraft Ground Support

  
 Business Name 
 
 Contact 
 
 Services / Description 
 
Fuel Prices
 
Comments
  
Havana Regional Airport 309-543-9006
[web site]
[email]
Aviation fuel, Aircraft parking (ramp or tiedown), Courtesy cars (free for pilots to use in the local area), ...

More info about Havana Regional Airport
independent
100LL
SS $6.55 
 Updated 10-Dec-2022
 
   write
SS=Self service
Update Fuel Prices
 

Would you like to see your business listed on this page?

 If your business provides an interesting product or service to pilots, flight crews, aircraft, or users of the Havana Regional Airport, you should consider listing it here.  To start the listing process, click on the button below
 
Add a business
 

Other Pages about Havana Regional Airport

www.havanaregionalairport.com
 
Update a link
 
Copyright © AirNav, LLC. All rights reserved. Privacy Policy  Contact